Find Starlink 3737

NORAD ID: 52114 Int'l Des: 2022-029 Owner: SPXS Country: US Constellation: starlink operational
LEOCIRCULAR

Live Position

Loading 3D Globe...

About Starlink 3737

Description loading...

Upcoming Passes

Passes for default location (London). Set your location on the main map for personalized predictions.

Altitude History

Loading altitude history...

Two-Line Element Set

1 52114U 22029AC 26104.85232782 .00000506 00000-0 49861-4 0 9991
2 52114 53.2157 276.7760 0001095 72.0848 288.0263 15.08837015226240
Epoch: Apr 14, 2026 • Age: 9 hours

Current Status

Altitude 544.4 km
Velocity 7.59 km/s
Sub-Earth Point -16.79°S, 29.89°W
Launch Date Mar 19, 2022
Age 4 years
Type internet

Technical Details

Classification Payload
Mass 297.00 kg
Dry Mass 275.00 kg
Total Mass 297.00 kg
Length 0.20 m
Diameter 2.80 m
Span 9.00 m
Shape Box + pan
Manufacturer SPXS
Bus Type Starlink
Phase Status In Orbit
Owner/State SPXS/US

Most Searched